Location: Bremen
(53.0793°N, 8.8017°E)
Time: 22:17:02
(UTC+02:00)

Envisat - Pass Details

Date: 02 March 2024
Orbit: 762 x 764 km, 98.3° (Epoch: 13 April)

Event Time Altitude Azimuth Distance (km) Brightness Sun altitude
Rises 02:22:53 0° 28° (NNE) 3,243 7.1 -39.2°
Reaches altitude 10° 02:26:22 10° 53° (NE) 2,310 6.1 -38.9°
Enters shadow 02:28:45 14° 81° (E) 2,029 5.6 -38.7°
